Date String (YYYY-MM-DD hh:mm:ss) UTC,Instrument flags,Ambient pressure (hPa),Sample flow (lpm),Bypass flow (lpm),Sample temperature (°C),Ambient temperature (°C),ASC tube jacket temperature (°C),LED temperature (°C),Box temperature (°C),Sample RH (%),Span deviation,Mass concentration (μg/m³),Mass concentration (μg/m³),Mass concentration (μg/m³)
DateTimeUTC,F1_M11,P_M11,Q1_M11,Q2_M11,T1_M11,T2_M11,T3_M11,T4_M11,T5_M11,U1_M11,ZSPAN_M11,X2_M11,X0_M11,X1_M11
2022-10-29 11:00:00,,0829.5,5.00,0.00,24.0,22.4,00.0,32.9,25.7,09.5,0000.0,0002.09,0002.70,0001.93
2022-10-29 11:01:00,,0829.5,5.00,0.00,24.0,22.3,00.0,32.9,25.7,09.4,0000.0,0002.14,0002.74,0001.99
2022-10-29 11:02:00,,0829.5,5.01,0.00,24.0,22.3,00.0,32.9,25.6,09.3,0000.0,0002.16,0002.77,0002.02
2022-10-29 11:03:00,,0829.5,5.00,0.00,24.0,22.3,00.0,32.9,25.7,09.3,0000.0,0002.22,0002.90,0002.07
2022-10-29 11:04:00,,0829.6,4.98,0.00,24.0,22.3,00.0,32.9,25.7,09.2,0000.0,0002.25,0003.03,0002.09
2022-10-29 11:05:00,,0829.6,4.99,0.00,24.0,22.3,00.0,32.9,25.7,08.7,0000.0,0002.26,0003.12,0002.09
2022-10-29 11:06:00,,0829.6,5.00,0.00,24.0,22.3,00.0,32.9,25.7,08.8,0000.0,0002.26,0003.11,0002.09
2022-10-29 11:07:00,,0829.6,5.00,0.00,24.0,22.3,00.0,32.8,25.7,09.1,0000.0,0002.25,0003.16,0002.08
2022-10-29 11:08:00,,0829.6,5.00,0.00,24.0,22.3,00.0,32.8,25.7,09.2,0000.0,0002.25,0003.17,0002.06
2022-10-29 11:09:00,,0829.6,5.00,0.00,23.9,22.3,00.0,32.8,25.7,08.6,0000.0,0002.20,0003.12,0002.02
2022-10-29 11:10:00,,0829.6,5.00,0.00,23.9,22.3,00.0,32.8,25.7,08.5,0000.0,0002.14,0003.03,0001.96
2022-10-29 11:11:00,,0829.5,5.00,0.00,23.9,22.3,00.0,32.8,25.7,08.5,0000.0,0002.08,0002.97,0001.90
2022-10-29 11:12:00,,0829.6,4.99,0.00,23.9,22.3,00.0,32.8,25.6,09.0,0000.0,0002.07,0003.01,0001.87
2022-10-29 11:13:00,,0829.6,5.00,0.00,23.9,22.3,00.0,32.8,25.6,08.7,0000.0,0002.07,0003.06,0001.85
2022-10-29 11:14:00,,0829.6,5.00,0.00,23.9,22.3,00.0,32.8,25.6,08.1,0000.0,0002.02,0002.94,0001.80
2022-10-29 11:15:00,,0829.6,5.00,0.00,23.9,22.3,00.0,32.8,25.7,08.9,0000.0,0002.01,0002.91,0001.79
2022-10-29 11:16:00,,0829.6,5.00,0.00,23.9,22.3,00.0,32.8,25.7,09.2,0000.0,0002.04,0002.93,0001.82
2022-10-29 11:17:00,,0829.6,5.01,0.00,23.9,22.3,00.0,32.8,25.7,09.2,0000.0,0002.08,0002.98,0001.86
2022-10-29 11:18:00,,0829.6,5.00,0.00,23.9,22.3,00.0,32.8,25.7,09.0,0000.0,0002.12,0002.92,0001.87
2022-10-29 11:19:00,,0829.6,4.99,0.00,23.9,22.3,00.0,32.8,25.7,09.3,0000.0,0002.16,0003.21,0001.89
2022-10-29 11:20:00,,0829.5,5.01,0.00,23.9,22.3,00.0,32.8,25.7,09.6,0000.0,0002.20,0003.76,0001.93
2022-10-29 11:21:00,,0829.5,5.01,0.00,23.9,22.3,00.0,32.8,25.7,09.7,0000.0,0002.30,0003.91,0001.99
2022-10-29 11:22:00,,0829.6,5.00,0.00,23.9,22.3,00.0,32.8,25.7,09.7,0000.0,0002.40,0004.09,0002.08
2022-10-29 11:23:00,,0829.5,4.97,0.00,23.9,22.3,00.0,32.8,25.7,09.9,0000.0,0002.48,0004.25,0002.13
2022-10-29 11:24:00,,0829.6,5.00,0.00,23.9,22.3,00.0,32.8,25.7,09.6,0000.0,0002.52,0004.36,0002.17
2022-10-29 11:25:00,,0829.6,5.01,0.00,23.9,22.3,00.0,32.8,25.7,08.9,0000.0,0002.57,0004.41,0002.21
2022-10-29 11:26:00,,0829.6,5.00,0.00,23.9,22.3,00.0,32.8,25.7,08.9,0000.0,0002.58,0004.40,0002.22
2022-10-29 11:27:00,,0829.6,4.99,0.00,23.9,22.3,00.0,32.8,25.8,09.5,0000.0,0002.59,0004.35,0002.22
2022-10-29 11:28:00,,0829.6,5.00,0.00,23.9,22.3,00.0,32.7,25.7,09.2,0000.0,0002.58,0004.35,0002.22
2022-10-29 11:29:00,,0830.1,5.01,0.00,23.9,22.3,00.0,32.7,25.7,08.6,0000.0,0002.53,0004.23,0002.20
2022-10-29 11:30:00,,0829.8,5.00,0.00,23.9,22.3,00.0,32.7,25.7,08.4,0000.0,0002.45,0003.91,0002.16
2022-10-29 11:31:00,,0829.8,4.98,0.00,23.9,22.3,00.0,32.7,25.6,08.5,0000.0,0002.38,0003.25,0002.09
2022-10-29 11:32:00,,0829.7,5.00,0.00,23.9,22.3,00.0,32.7,25.6,08.5,0000.0,0002.31,0003.12,0002.05
2022-10-29 11:33:00,,0829.7,5.00,0.00,23.9,22.3,00.0,32.7,25.7,08.7,0000.0,0002.24,0003.11,0001.98
2022-10-29 11:34:00,,0829.7,4.99,0.00,23.9,22.3,00.0,32.7,25.7,08.6,0000.0,0002.15,0003.38,0001.93
2022-10-29 11:35:00,,0829.7,4.99,0.00,23.9,22.3,00.0,32.7,25.7,08.9,0000.0,0002.10,0003.28,0001.89
2022-10-29 11:36:00,,0829.7,5.00,0.00,23.9,22.3,00.0,32.7,25.7,09.2,0000.0,0002.12,0003.76,0001.90
2022-10-29 11:37:00,,0829.8,5.01,0.00,23.9,22.3,00.0,32.7,25.7,09.1,0000.0,0002.14,0003.82,0001.93
2022-10-29 11:38:00,,0829.7,5.01,0.00,23.9,22.4,00.0,32.7,25.7,09.1,0000.0,0002.13,0003.80,0001.93
2022-10-29 11:39:00,,0829.8,4.98,0.00,23.9,22.4,00.0,32.7,25.8,09.1,0000.0,0002.14,0003.82,0001.92
2022-10-29 11:40:00,,0829.8,5.00,0.00,23.9,22.4,00.0,32.7,25.8,09.3,0000.0,0002.19,0003.98,0001.95
2022-10-29 11:41:00,,0829.8,5.00,0.00,23.9,22.4,00.0,32.7,25.8,09.4,0000.0,0002.22,0005.43,0001.99
2022-10-29 11:42:00,,0829.8,5.00,0.00,23.9,22.4,00.0,32.7,25.8,09.4,0000.0,0002.28,0005.99,0002.03
2022-10-29 11:43:00,,0829.8,5.01,0.00,23.9,22.4,00.0,32.7,25.8,09.4,0000.0,0002.30,0005.97,0002.07
2022-10-29 11:44:00,,0829.8,5.00,0.00,23.9,22.4,00.0,32.7,25.8,09.4,0000.0,0002.35,0005.94,0002.10
2022-10-29 11:45:00,,0829.8,5.01,0.00,23.9,22.4,00.0,32.7,25.9,09.4,0000.0,0002.38,0005.52,0002.13
2022-10-29 11:46:00,,0829.8,4.99,0.00,23.9,22.4,00.0,32.7,25.9,09.4,0000.0,0002.40,0005.55,0002.14
2022-10-29 11:47:00,,0829.8,5.01,0.00,23.9,22.4,00.0,32.7,25.9,09.4,0000.0,0002.39,0005.14,0002.14
2022-10-29 11:48:00,,0829.8,5.00,0.00,23.9,22.4,00.0,32.7,25.7,09.4,0000.0,0002.39,0005.08,0002.13
2022-10-29 11:49:00,,0829.8,5.00,0.00,23.9,22.4,00.0,32.7,25.7,09.4,0000.0,0002.37,0005.05,0002.12
2022-10-29 11:50:00,,0829.8,5.01,0.00,23.9,22.4,00.0,32.7,25.9,09.4,0000.0,0002.35,0005.04,0002.12
2022-10-29 11:51:00,,0829.8,4.99,0.00,23.9,22.4,00.0,32.7,25.8,09.4,0000.0,0002.38,0005.07,0002.12
2022-10-29 11:52:00,,0829.8,5.00,0.00,23.9,22.4,00.0,32.7,25.7,09.4,0000.0,0002.42,0003.90,0002.13
2022-10-29 11:53:00,,0829.9,5.01,0.00,23.9,22.4,00.0,32.7,25.7,09.2,0000.0,0002.41,0003.21,0002.13
2022-10-29 11:54:00,,0829.9,5.01,0.00,23.9,22.4,00.0,32.7,25.7,09.0,0000.0,0002.40,0003.77,0002.11
2022-10-29 11:55:00,,0829.9,4.98,0.00,23.9,22.4,00.0,32.7,25.7,09.0,0000.0,0002.37,0004.67,0002.09
2022-10-29 11:56:00,,0829.8,5.02,0.00,23.9,22.4,00.0,32.8,25.7,08.8,0000.0,0002.34,0004.63,0002.06
2022-10-29 11:57:00,,0829.9,5.01,0.00,23.9,22.4,00.0,32.7,25.8,08.6,0000.0,0002.34,0004.62,0002.04
2022-10-29 11:58:00,,0830.0,4.98,0.00,23.9,22.3,00.0,32.7,25.7,08.4,0000.0,0002.29,0004.55,0002.00
2022-10-29 11:59:00,,0829.9,5.00,0.00,23.9,22.3,00.0,32.7,25.6,08.1,0000.0,0002.25,0004.49,0001.94
